Regional Weather Roundup
Issued by NWS

Home | Current Version | Previous Version | Text Only | Print | Product List | Glossary On
Versions: 1 2 3 4 5 6 7 8 9 10 11 12 13 14 15 16 17 18 19 20 21 22 23 24 25 26 27 28 29 30 31 32 33 34 35 36 37 38 39 40 41 42 43 44 45 46 47 48 49 50
000
ASUS43 KLMK 262202
RWRKY
KENTUCKY REGIONAL WEATHER ROUNDUP
NATIONAL WEATHER SERVICE LOUISVILLE KY
600 PM EDT SUN MAR 26 2017

NOTE "FAIR" INDICATES FEW OR NO CLOUDS BELOW 12,000 FEET
WITH NO SIGNIFICANT WEATHER AND/OR OBSTRUCTIONS TO VISIBILITY.

KYZ001>023-026-027-061>063-070>075-262300-
WESTERN AND SOUTH CENTRAL KENTUCKY

CITY           SKY/WX    TMP DP  RH WIND       PRES   REMARKS
PADUCAH        PTSUNNY   65  51  60 SW13      29.93S
HENDERSON      SUNNY     64  48  55 W17G25    29.91S
OWENSBORO      PTSUNNY   68  54  60 W15       29.91S
HOPKINSVILLE   MOSUNNY   69  52  54 W16       29.91F
BOWLING GREEN  PTSUNNY   73  53  49 SW13      29.92F
GLASGOW        NOT AVBL
$$

KYZ024-025-028>034-038-045-046-053-262300-
NORTH CENTRAL KENTUCKY

CITY           SKY/WX    TMP DP  RH WIND       PRES   REMARKS
LOUISVILLE/SDF CLOUDY    70  48  45 SW18G26   29.89S
LOUISVILLE/LOU CLOUDY    70  50  49 SW15G26   29.89S
FORT KNOX      PTSUNNY   68  52  57 SW18G26   29.89S
$$

KYZ035>037-039>044-047>052-055>060-089>105-262300-
NORTHEAST KENTUCKY

CITY           SKY/WX    TMP DP  RH WIND       PRES   REMARKS
LEXINGTON      CLOUDY    66  52  60 SW16      29.93S
COVINGTON      LGT RAIN  57  55  93 W13       29.90R FOG
FRANKFORT      CLOUDY    64  56  75 SW8       29.91R
$$

KYZ054-064>069-076>088-106>120-262300-
SOUTHEAST KENTUCKY

CITY           SKY/WX    TMP DP  RH WIND       PRES   REMARKS
JACKSON        CLOUDY    61  58  90 CALM      29.99F
LONDON         LGT RAIN  61  57  87 SW9       29.98F
SOMERSET       NOT AVBL
MIDDLESBORO    PTSUNNY   70  56  62 SW10      29.99S
MONTICELLO     PTCLDY    69  57  65 SW20G29   29.98F
$$




USA.gov is the U.S. government's official web portal to all federal, state and local government web resources and services.